    Observer details:
    012 Uccle.  Observer P. De Cat.  0.85-m f/2.5 Schmidt + 3Kx2K CCD.
    046 Klet.  Observer M. Honkova.  0.57-m f/5.2 reflector + CCD.
    104 San Marcello Pistoiese.  Observers L. Tesi, G. Fagioli, M. Mazzucato,
        F. Dolfi.  Measurer L. Tesi.  0.60-m f/4 reflector + CCD.
    143 Gnosca.  Observer S. Sposetti.  0.40-m f/4 reflector + CCD.
    204 Schiaparelli Observatory.  Observer L. Buzzi.  0.60-m f/4.64 reflector
        + CCD.
    235 CAST Observatory, Talmassons.  Observer R. Ligustri.  0.35-m f/5 reflector
        + CCD.
    246 Klet Observatory-KLENOT.  Observer M. Tichy.  1.06-m KLENOT Telescope
        + CCD.
    595 Farra d'Isonzo.  Observers L. Bittesini, G. Lombardi, E. Pettarin,
        F. Piani.  Measurer E. Pettarin.  0.30-m f/4.5 reflector + CCD.
    673 Table Mountain Observatory, Wrightwood.  Observer J. Young.  0.61-m f/16
        Cassegrain + CCD.
    703 Catalina Sky Survey.  Observer R. E. Hill.  Measurers E. C. Beshore,
        A. Boattini, G. J. Garradd, A. R. Gibbs, A. D. Grauer, R. E. Hill,
        R. A. Kowalski, S. M. Larson, R. H. McNaught.  0.68-m Schmidt + CCD.
    854 Sabino Canyon Observatory, Tucson.  Observer J. E. McGaha.  0.36-m f/10.0
        Schmidt-Cassegrain + CCD.
    A24 New Millennium Observatory, Mozzate.  Observer E. Cozzi.  0.36-m f/7.6
        Schmidt-Cassegrain + CCD.
    A74 Bergen-Enkheim Observatory.  Observer U. Suessenberger.  0.36-m f/4.6
        Schmidt-Cassegrain + CCD.
    B04 Saint-Barthelemy Observatory.  Observer A. Carbognani.  0.81-m f/7.9
        reflector + CCD.
    J66 Kinver.  Observer K. Hills.  0.41-m f/6.9 Ritchey-Chretien + CCD.
    J71 Willow Bank Observatory.  Observer I. Griffin.  0.35-m Schmidt-Cassegrain
        + CCD.
    
    Orbital elements:
    2008 CR116                                               Earth MOID = 0.1056 AU
    Epoch 2007 Oct. 27.0 TT = JDT 2454400.5                 MPC
    M 280.20194              (2000.0)            P               Q
    n   0.55381734     Peri.  203.24905     -0.97707214     +0.02137642
    a   1.4685600      Node   334.98126     +0.15111546     -0.63124881
    e   0.2666240      Incl.   30.05874     -0.14998053     -0.77528575
    P   1.78           H   20.4           G   0.15           U   8
    Residuals in seconds of arc
    080211 703  0.0   0.4+    080211 A74  0.3+  0.0     080212 673  0.1-  0.1-
    080211 703  0.2+  0.1+    080211 A74  0.3+  0.1+    080212 104 (2.6-  3.3+)
    080211 703  0.2-  0.0     080211 A74  0.3+  0.5+    080212 104  0.9+  0.3+
    080211 703  0.0   0.1-    080211 595  0.2+  0.3+    080212 104  1.5+  0.4+
    080211 B04  0.1-  0.0     080211 595  0.2+  0.1-    080212 104 (0.5+  4.7-)
    080211 B04  0.4-  0.2+    080212 046  0.8-  0.5-    080212 235  0.7-  0.1+
    080211 B04  0.0   0.0     080212 046  0.3-  0.0     080212 235  0.5-  0.4-
    080211 B04  0.4-  0.2+    080212 046  0.5+  0.2-    080212 J71  0.5-  0.6+
    080211 B04  0.1-  0.1+    080212 046  0.3+  0.1+    080212 J71  0.0   0.3+
    080211 143  0.4-  0.2-    080212 046  0.7-  0.4-    080212 J71  0.2-  0.1+
    080211 J66  0.0   0.0     080212 012  0.2+  0.2+    080212 595  0.6-  0.7-
    080211 J66  0.0   0.0     080212 012  0.9+  1.5+    080212 A24  0.8+  0.7+
    080211 143  0.1-  0.3-    080212 012  0.1-  1.0-    080212 A24  0.7+  0.1+
    080211 J66  0.3+  0.2+    080212 012  0.1-  0.1-    080212 A24  0.8+  0.1+
    080211 J66  0.4-  0.3-    080212 012  0.2+  0.1+    080212 595  0.4+  0.6+
    080211 J66  0.3-  0.3-    080212 012  0.0   0.4-    080212 A24  0.5+  0.2+
    080211 143  0.0   0.1-    080212 012  0.3-  0.5-    080212 A24  0.5+  0.6+
    080211 J66  0.1+  0.5+    080212 012  0.2-  0.6-    080212 595  0.0   0.3+
    080211 A74  0.2-  0.4+    080212 012  0.2-  0.7-    080212 B04  0.4-  0.2-
    080211 A74  0.0   0.0     080212 012  0.6-  0.7-    080212 B04  0.5-  0.1-
    080211 A74  0.1-  0.1-    080212 204  0.2+  0.1-    080212 B04  0.3-  0.4-
    080211 A74  0.0   0.0     080212 204  0.1+  0.1-    080213 046  0.4-  0.1+
    080211 246  0.4-  0.1+    080212 204  0.1+  0.2-    080213 046  0.1+  0.4-
    080211 246  0.3+  0.4-    080212 854  0.1+  0.5+    080213 046  0.0   0.2+
    080211 246  0.7+  0.3+    080212 854  0.4+  0.1+    080213 046  0.1-  0.4-
    080211 246  0.0   0.4+    080212 854  0.1+  0.0     080213 046  0.3-  0.3-
    080211 246  0.4-  0.1+    080212 673  0.6+  0.4+    080213 046  0.3-  0.1-
    080211 A74  0.3+  0.0     080212 673  0.6+  0.6+
    080211 A74  0.2+  0.0     080212 673  0.2-  0.2-
    
    Ephemeris:
    2008 CR116               a,e,i = 1.47, 0.27, 30                  q = 1.0770
    Date    TT    R. A. (2000) Decl.     Delta      r     Elong.  Phase     V
    2008 02 14    12 00.59   +40 20.7    0.160    1.115   140.3    34.5    18.1
    2008 02 24    10 29.59   +11 30.4    0.107    1.096   178.1     1.7    16.0
    2008 03 05    08 50.70   -27 53.7    0.128    1.084   133.3    41.7    17.7
    2008 03 15    07 44.32   -44 44.7    0.197    1.078   109.8    60.3    19.2
    2008 03 25    07 08.89   -50 57.9    0.276    1.078    99.6    65.8    20.1
    2008 04 04    06 51.60   -53 59.5    0.352    1.085    94.4    66.8    20.7
    2008 04 14    06 45.21   -55 57.6    0.422    1.099    91.6    65.8    21.1
    2008 04 24    06 46.09   -57 36.7    0.483    1.119    90.4    64.0    21.3
    2008 05 04    06 52.94   -59 14.7    0.535    1.144    90.3    61.9    21.5
    2008 05 14    07 05.73   -61 03.3    0.576    1.173    91.1    59.5    21.7
    2008 05 24    07 25.13   -63 08.9    0.609    1.206    92.7    57.1    21.8
    2008 06 03    07 53.12   -65 32.5    0.634    1.241    94.9    54.5    21.9
    2008 06 13    08 33.21   -68 09.0    0.654    1.278    97.6    52.0    21.9
    2008 06 23    09 30.49   -70 38.4    0.672    1.317   100.5    49.4    22.0
    2008 07 03    10 49.57   -72 17.7    0.692    1.356   103.4    46.8    22.0
    
    Gareth V. Williams           (C) Copyright 2008 MPC           M.P.E.C. 2008-C89
    

    Read MPEC 2008-C88 Read MPEC 2008-C90


    MPEC number:

    Enter an MPEC number in one of the following forms:

    • 1997-B01 (the full form)
    • J97B01 (the packed version of the full form)
    • B01 (the abbreviated form)